Simultaneous Nadir Overpasses (SNOs) Predictions

Prediction of SNOs between NOAA-20 and AQUA Satellite Orbit:

Table of predicted SNOs for the next 14.0 days since TLE Epoch: 4/8/2023
Index Date (NOAA-20) Time (NOAA-20) Lat,Lon (NOAA-20) SZA (NOAA-20 ) Date (AQUA) Time (AQUA) Lat,Lon (AQUA) SZA (AQUA ) Distance(km) Time Diff (sec)
1 04/10/2023 16:29:32 80.00,-165.82 83.62 04/10/2023 16:30:28 80.00,-165.71 83.56 2.24 56
2 04/10/2023 17:20:09 -80.23, 4.09 96.87 04/10/2023 17:19:47 -80.22, 3.94 96.83 2.97 22
3 04/13/2023 07:04:58 80.03, -24.27 82.58 04/13/2023 07:05:56 80.04, -24.22 82.53 1.05 58
4 04/13/2023 07:55:39 -80.16, 144.42 97.69 04/13/2023 07:55:18 -80.17, 144.55 97.70 2.43 21
5 04/15/2023 21:40:24 80.07, 117.24 81.56 04/15/2023 21:41:23 80.07, 117.21 81.52 0.55 59
6 04/15/2023 22:31:05 -80.19, -74.05 98.72 04/15/2023 22:30:45 -80.20, -74.00 98.71 1.05 20
7 04/18/2023 12:15:49 80.10,-101.29 80.56 04/18/2023 12:16:48 80.09,-101.41 80.54 2.30 59
8 04/18/2023 13:06:30 -80.22, 67.43 99.71 04/18/2023 13:06:10 -80.22, 67.39 99.69 0.68 20
9 04/21/2023 02:51:18 80.04, 39.22 79.77 04/21/2023 02:52:15 80.04, 39.33 79.71 2.02 57



Historial Predications of SNOs between NOAA-20 and AQUA
